GW5691 Weather Reports


time (UTC)temp
F
wind
direction
speed
knots
gust
knots
rain 1hr
in
rain 24hr
in
rain mn
in
humidity
%
barometer
mb
20260906100011 73 101 0.0 1.7 0.00 0.01 0.00 92 1013.2
20260906094520 72 86 0.9 1.7 0.00 0.01 0.00 92 1013.1
20260906093014 73 119 0.0 1.7 0.00 0.01 0.00 92 1013.2
20260906091511 72 331 0.0 1.7 0.00 0.01 0.00 92 1013.3
20260906090004 73 92 0.0 2.6 0.00 0.01 0.00 91 1013.1
20260906084504 74 143 0.9 2.6 0.00 0.01 0.00 91 1013.0
20260906083015 73 123 0.0 1.7 0.00 0.01 0.00 91 1013.2
20260906081511 74 285 0.0 1.7 0.00 0.01 0.00 91 1013.0
20260906080016 73 180 0.9 1.7 0.00 0.01 0.00 91 1013.2
20260906074514 73 192 0.0 1.7 0.00 0.01 0.00 91 1013.4
20260906073008 73 302 0.0 2.6 0.00 0.01 0.00 90 1013.3
20260906071504 73 302 0.0 1.7 0.00 0.01 0.00 90 1012.9
20260906070014 73 261 0.0 1.7 0.00 0.01 0.00 91 1012.6
20260906064514 73 200 0.0 1.7 0.00 0.01 0.00 91 1012.8
20260906063012 73 263 0.0 1.7 0.00 0.01 0.00 90 1012.9
20260906061513 74 194 0.0 1.7 0.00 0.01 0.00 87 1013.0
20260906060016 74 58 0.0 0.0 0.00 0.01 0.00 88 1013.2
20260906054514 74 58 0.0 0.9 0.00 0.01 0.00 88 1013.3
20260906053010 74 182 0.0 1.7 0.00 0.01 0.00 90 1013.5
20260906051516 75 161 0.0 0.9 0.00 0.01 0.00 83 1013.7
20260906050016 75 161 0.0 1.7 0.00 0.01 0.00 85 1013.7
20260906044517 74 161 0.0 1.7 0.00 0.01 0.00 86 1013.7
20260906043027 74 151 0.0 1.7 0.00 0.01 0.00 89 1013.8
20260906041518 76 271 0.0 1.7 0.00 0.01 0.00 85 1014.1
20260906040017 75 302 0.0 1.7 0.00 0.01 0.00 87 1014.0
20260906034512 73 230 0.0 0.9 0.00 0.01 0.01 89 1014.0
20260906033025 76 230 0.0 1.7 0.00 0.01 0.01 82 1013.9
20260906031518 76 230 0.0 0.0 0.00 0.01 0.01 83 1014.0
20260906030017 74 230 0.9 1.7 0.00 0.01 0.01 88 1013.9
20260906024522 75 166 0.0 1.7 0.00 0.01 0.01 87 1013.9
20260906023018 76 318 0.0 1.7 0.00 0.01 0.01 85 1013.4
20260906021514 76 48 1.7 2.6 0.00 0.01 0.01 85 1013.3
20260906020010 78 260 0.0 1.7 0.00 0.01 0.01 80 1013.1
20260906014529 77 195 0.0 1.7 0.00 0.01 0.01 84 1013.1
20260906013020 80 195 0.0 0.9 0.00 0.01 0.01 76 1013.3
20260906011534 78 195 0.0 1.7 0.00 0.01 0.01 81 1013.0
20260906010026 79 229 0.0 3.5 0.00 0.01 0.01 80 1012.9
20260906004533 80 102 0.9 1.7 0.00 0.01 0.01 80 1013.1
20260906003014 80 148 0.0 1.7 0.00 0.01 0.01 78 1013.0
20260906001528 79 200 0.0 1.7 0.00 0.01 0.01 80 1013.1
20260906000024 80 227 0.0 1.7 0.00 0.01 0.01 79 1013.1
20260905234522 87 317 0.0 1.7 0.00 0.01 0.01 66 1012.8
20260905233025 85 292 0.0 1.7 0.00 0.01 0.01 70 1012.8
20260905231525 83 293 0.0 1.7 0.00 0.01 0.01 73 1012.8
20260905230019 84 319 0.9 3.5 0.00 0.01 0.01 71 1012.7
20260905224525 84 237 1.7 5.2 0.00 0.01 0.01 72 1012.8
20260905223028 84 246 1.7 4.3 0.00 0.01 0.01 71 1012.6
20260905221527 84 340 0.9 4.3 0.00 0.01 0.01 72 1012.7
20260905220025 84 246 1.7 4.3 0.00 0.01 0.01 71 1012.8
20260905214530 83 238 1.7 4.3 0.00 0.01 0.01 73 1013.2
20260905213038 84 219 2.6 5.2 0.00 0.01 0.01 71 1013.4
20260905211523 85 238 0.9 3.5 0.00 0.01 0.01 69 1013.5
20260905210017 84 165 1.7 3.5 0.00 0.01 0.01 70 1013.0
20260905204515 84 167 1.7 4.3 0.00 0.01 0.01 71 1013.4
20260905203009 84 234 2.6 5.2 0.00 0.01 0.01 70 1013.6
20260905201527 88 257 1.7 5.2 0.00 0.01 0.01 67 1013.7
20260905200026 87 145 0.9 1.7 0.00 0.01 0.01 65 1013.8
20260905194528 83 253 0.9 1.7 0.00 0.01 0.01 72 1013.7
20260905193023 83 17 0.0 1.7 0.00 0.01 0.01 72 1013.9
20260905191518 83 283 0.0 1.7 0.00 0.01 0.01 72 1014.2
20260905190016 84 3 0.0 1.7 0.00 0.01 0.01 71 1014.7
20260905184512 86 319 0.0 0.9 0.01 0.01 0.01 68 1014.7
20260905183028 82 336 0.0 1.7 0.01 0.01 0.01 74 1014.5
20260905181534 85 133 0.0 1.7 0.01 0.01 0.01 68 1014.6
20260905180026 83 1 0.9 3.5 0.01 0.01 0.01 71 1014.7
20260905174524 88 13 3.5 13.0 0.00 0.00 0.00 62 1015.0
20260905173020 94 44 1.7 4.3 0.00 0.00 0.00 54 1015.0
20260905171524 95 119 1.7 5.2 0.00 0.00 0.00 54 1014.6
20260905170013 91 223 1.7 1.7 0.00 0.00 0.00 59 1014.7
20260905164531 91 340 0.9 3.5 0.00 0.00 0.00 60 1015.2
20260905163033 90 230 1.7 5.2 0.00 0.00 0.00 61 1015.2
20260905161530 90 17 0.0 2.6 0.00 0.00 0.00 64 1015.3
20260905160038 88 347 0.9 1.7 0.00 0.00 0.00 65 1015.3
20260905154523 88 227 0.9 4.3 0.00 0.00 0.00 66 1015.4
20260905153019 88 49 2.6 3.5 0.00 0.00 0.00 65 1015.4
20260905151514 86 248 1.7 3.5 0.00 0.00 0.00 68 1015.5
20260905150036 85 252 2.6 4.3 0.00 0.00 0.00 70 1015.7
20260905144535 83 213 0.9 3.5 0.00 0.00 0.00 73 1015.7
20260905143040 83 228 1.7 2.6 0.00 0.00 0.00 74 1015.9
20260905141530 82 248 0.9 2.6 0.00 0.00 0.00 76 1015.9
20260905140022 82 286 0.9 3.5 0.00 0.00 0.00 77 1016.0
20260905134523 81 324 0.9 1.7 0.00 0.00 0.00 79 1016.1
20260905133030 81 55 0.0 1.7 0.00 0.00 0.00 79 1016.1
20260905131544 79 304 0.9 1.7 0.00 0.00 0.00 83 1016.4
20260905130032 78 94 0.0 1.7 0.00 0.00 0.00 85 1016.3
20260905124508 77 94 0.0 0.0 0.00 0.00 0.00 89 1016.3
20260905123004 75 94 0.0 1.7 0.00 0.00 0.00 89 1016.2
20260905121504 74 94 0.0 0.0 0.00 0.00 0.00 87 1016.3
20260905120024 73 94 0.0 0.0 0.00 0.00 0.00 86 1016.2
20260905114535 73 94 0.0 1.7 0.00 0.00 0.00 90 1016.0
20260905113027 72 94 0.0 1.7 0.00 0.00 0.00 89 1015.7
20260905111511 72 94 0.0 1.7 0.00 0.00 0.00 90 1015.5
20260905110010 72 94 0.0 0.9 0.00 0.00 0.00 91 1015.4
20260905104519 73 94 0.0 1.7 0.00 0.00 0.00 88 1015.4
20260905103027 72 94 0.0 0.9 0.00 0.00 0.00 89 1015.1
20260905101538 73 94 0.0 0.0 0.00 0.00 0.00 87 1014.8